Back to catalog

BREEZE-M DEB

AliveHEO
NORAD 32040·DEBRIS·🇷🇺 Russia

Launched Feb 28, 2006 from Baikonur Cosmodrome

Loading…

Next Passes (next 24 hours)

TLE

FreshSource: Space-Track

Epoch: Sep 8, 2026, 14:41 UTC

1 32040U 06006T   26251.61212678  .00001858  00000-0  11730-2 0  9996
2 32040  51.6512  52.6335 4796505  19.9822 353.7602  5.82141507275285

Track BREEZE-M DEB in real time with AllMySat

Download on the App Store